Home   Weather   Casablanca   Past weeks

Flag for Morocco Past Weather in Casablanca, Morocco — Yesterday and Last 2 Weeks

66 °F

Scattered clouds.

Feels Like: 66 °F
Forecast: 67 / 75 °F
Wind: 12 mph from Southwest

Location: Nouasseur

Current Time: Oct 23, 2016 at 7:22:29 AM

Latest Report: Oct 23, 2016 at 7:00 AM

Visibility: N/A

Pressure: 29.86 "Hg

Humidity: 88%

Dew Point: 63 °F

Location of CasablancaLocation

Past Weather in Casablanca — Graph


Casablanca Temperature Yesterday

Maximum temperature yesterday: 81 °F (at 1:00 PM)
Minimum temperature yesterday: 59 °F (at 4:30 AM)
Average temperature yesterday: 68 °F

High & Low Weather Summary for the Past Weeks

High91 °F (Oct 18, 2:00 PM)100% (Oct 12, 8:00 PM)30.18 "Hg (Oct 12, 8:00 PM)
Low54 °F (Oct 12, 3:30 AM)28% (Oct 18, 2:00 PM)29.74 "Hg (Oct 13, 2:30 AM)
Average68 °F77%30.00 "Hg
* Reported Oct 8 6:00 AM — Oct 23 6:00 AM, Casablanca, Weather by CustomWeather, © 2016

Note: Actual official high and low records may vary slightly from our data, if they occured in-between our weather recording intervals... More about our weather records


Casablanca Weather History for the Previous 24 Hours

Scroll right to see more
Time TempWeatherWind HumidityBarometerVisibility
6:00 AM
Sun, Oct 23
66 °FPassing clouds.15 mph88%29.86 "HgN/A
5:30 AM68 °FPassing clouds.15 mph88%29.86 "HgN/A
5:00 AM68 °FPassing clouds.16 mph88%29.86 "HgN/A
4:30 AM68 °FPassing clouds.14 mph88%29.89 "HgN/A
4:00 AM68 °FPassing clouds.15 mph88%29.89 "HgN/A
3:30 AM68 °FPassing clouds.15 mph88%29.89 "HgN/A
3:00 AM68 °FPassing clouds.16 mph83%29.89 "HgN/A
2:30 AM68 °FPassing clouds.16 mph88%29.89 "HgN/A
2:00 AM68 °FPassing clouds.16 mph88%29.92 "HgN/A
1:30 AM68 °FPassing clouds.13 mph83%29.92 "HgN/A
1:00 AM68 °FPassing clouds.15 mph88%29.92 "HgN/A
12:30 AM68 °FPassing clouds.15 mph88%29.92 "HgN/A
11:30 PM
Sat, Oct 22
68 °FPassing clouds.13 mph88%29.92 "HgN/A
10:30 PM68 °FPassing clouds.14 mph88%29.92 "HgN/A
9:30 PM68 °FPassing clouds.10 mph83%29.92 "HgN/A
8:30 PM70 °FPassing clouds.14 mph78%29.92 "HgN/A
8:00 PM72 °FPassing clouds.15 mph73%29.92 "HgN/A
7:30 PM70 °FPassing clouds.10 mph83%29.92 "HgN/A
7:00 PM72 °FPassing clouds.20 mph78%29.89 "HgN/A
6:45 PM72 °FPassing clouds.20 mph78%29.89 "HgN/A
6:30 PM73 °FPassing clouds.22 mph74%29.89 "HgN/A
6:00 PM75 °FPassing clouds.23 mph65%29.89 "HgN/A
3:00 PM81 °FPassing clouds.29 mph42%29.86 "HgN/A
2:30 PM81 °FPassing clouds.26 mph45%29.86 "HgN/A
1:30 PM81 °FPassing clouds.28 mph39%29.89 "HgN/A
1:00 PM81 °FPassing clouds.23 mph39%29.89 "HgN/A
12:00 PM79 °FPassing clouds.22 mph42%29.89 "HgN/A
11:00 AM77 °FPassing clouds.17 mph47%29.89 "HgN/A
10:00 AM70 °FSunny.16 mph73%29.89 "Hg10 mi
9:00 AM59 °FCool.6 mph100%29.89 "Hg4 mi
7:30 AM61 °FFog.9 mph100%29.89 "Hg1 mi
7:00 AM61 °FFog.8 mph100%29.89 "Hg1 mi
Weather by CustomWeather, © 2016

See weather overviewHow to use our weather pages